| time (UTC) | temp C | wind direction | speed KPH | gust KPH | rain 1hr cm | rain 24hr cm | rain mn cm | humidity % | barometer mb |
| 20260510153401 | 12 | 341 | 4.8 | 14.5 | 0.00 | 0.94 | 0.00 | 46 | 1016.1 |
| 20260510153147 | 12 | 350 | 4.8 | 14.5 | 0.00 | 0.94 | 0.00 | 47 | 1016.0 |
| 20260510152402 | 12 | 329 | 4.8 | 11.3 | 0.00 | 0.94 | 0.00 | 47 | 1016.0 |
| 20260510151903 | 12 | 305 | 4.8 | 11.3 | 0.00 | 0.94 | 0.00 | 48 | 1015.9 |
| 20260510151402 | 12 | 298 | 3.2 | 9.7 | 0.00 | 0.94 | 0.00 | 50 | 1015.8 |
| 20260510150901 | 12 | 99 | 3.2 | 9.7 | 0.00 | 0.94 | 0.00 | 47 | 1015.8 |
| 20260510150652 | 12 | 301 | 3.2 | 11.3 | 0.00 | 0.94 | 0.00 | 47 | 1015.7 |
| 20260510145902 | 12 | 23 | 3.2 | 11.3 | 0.00 | 0.94 | 0.00 | 46 | 1015.6 |
| 20260510145402 | 12 | 297 | 4.8 | 11.3 | 0.00 | 0.94 | 0.00 | 46 | 1015.6 |
| 20260510144901 | 11 | 293 | 4.8 | 8.0 | 0.00 | 0.94 | 0.00 | 49 | 1015.5 |
| 20260510144401 | 11 | 276 | 4.8 | 11.3 | 0.00 | 0.94 | 0.00 | 48 | 1015.5 |
| 20260510143901 | 11 | 5 | 3.2 | 11.3 | 0.00 | 0.94 | 0.00 | 51 | 1015.5 |
| 20260510143401 | 12 | 345 | 3.2 | 9.7 | 0.00 | 0.94 | 0.00 | 48 | 1015.3 |
| 20260510142936 | 11 | 309 | 3.2 | 9.7 | 0.00 | 0.94 | 0.00 | 50 | 1015.2 |
| 20260510142925 | 11 | 29 | 3.2 | 9.7 | 0.00 | 0.94 | 0.00 | 50 | 1015.2 |
| 20260510141902 | 11 | 276 | 3.2 | 11.3 | 0.00 | 0.94 | 0.00 | 49 | 1015.2 |
| 20260510141402 | 11 | 204 | 3.2 | 11.3 | 0.00 | 0.94 | 0.00 | 48 | 1015.2 |
| 20260510140901 | 11 | 283 | 3.2 | 9.7 | 0.00 | 0.94 | 0.00 | 48 | 1015.0 |
| 20260510140401 | 11 | 285 | 3.2 | 9.7 | 0.00 | 0.94 | 0.00 | 50 | 1015.0 |
| 20260510135900 | 11 | 339 | 3.2 | 9.7 | 0.00 | 0.94 | 0.00 | 54 | 1014.8 |
| 20260510135401 | 11 | 344 | 3.2 | 9.7 | 0.00 | 0.94 | 0.00 | 52 | 1014.8 |
| 20260510134900 | 10 | 0 | 3.2 | 8.0 | 0.00 | 0.94 | 0.00 | 53 | 1014.8 |
| 20260510134401 | 10 | 307 | 3.2 | 8.0 | 0.00 | 0.94 | 0.00 | 54 | 1014.7 |
| 20260510133902 | 10 | 303 | 3.2 | 8.0 | 0.00 | 0.94 | 0.00 | 54 | 1014.6 |
| 20260510133402 | 10 | 300 | 3.2 | 8.0 | 0.00 | 0.94 | 0.00 | 55 | 1014.5 |
| 20260510132902 | 10 | 166 | 3.2 | 11.3 | 0.00 | 0.94 | 0.00 | 55 | 1014.4 |
| 20260510132401 | 10 | 282 | 3.2 | 11.3 | 0.00 | 0.94 | 0.00 | 52 | 1014.4 |
| 20260510131903 | 10 | 298 | 3.2 | 11.3 | 0.00 | 0.94 | 0.00 | 54 | 1014.3 |
| 20260510131402 | 10 | 310 | 3.2 | 11.3 | 0.00 | 0.94 | 0.00 | 53 | 1014.4 |
| 20260510130901 | 9 | 345 | 3.2 | 9.7 | 0.00 | 0.94 | 0.00 | 60 | 1014.3 |
| 20260510130400 | 9 | 299 | 4.8 | 9.7 | 0.00 | 0.94 | 0.00 | 58 | 1014.3 |
| 20260510125900 | 9 | 281 | 3.2 | 8.0 | 0.00 | 0.94 | 0.00 | 63 | 1014.2 |
| 20260510125647 | 8 | 329 | 3.2 | 8.0 | 0.00 | 0.94 | 0.00 | 62 | 1014.2 |
| 20260510124900 | 8 | 298 | 3.2 | 9.7 | 0.00 | 0.94 | 0.00 | 63 | 1014.1 |
| 20260510124402 | 8 | 294 | 3.2 | 9.7 | 0.00 | 0.94 | 0.00 | 63 | 1014.1 |
| 20260510123858 | 8 | 255 | 3.2 | 9.7 | 0.00 | 0.94 | 0.00 | 64 | 1014.3 |
| 20260510123359 | 8 | 293 | 3.2 | 11.3 | 0.00 | 0.94 | 0.00 | 65 | 1014.5 |
| 20260510122900 | 8 | 298 | 3.2 | 11.3 | 0.00 | 0.94 | 0.00 | 68 | 1014.5 |
| 20260510122400 | 8 | 287 | 3.2 | 9.7 | 0.00 | 0.94 | 0.00 | 69 | 1014.4 |
| 20260510121859 | 7 | 19 | 3.2 | 6.4 | 0.00 | 0.94 | 0.00 | 73 | 1014.5 |
| 20260510121400 | 7 | 289 | 3.2 | 9.7 | 0.00 | 0.94 | 0.00 | 74 | 1014.4 |
| 20260510120857 | 7 | 290 | 3.2 | 9.7 | 0.00 | 0.94 | 0.00 | 76 | 1014.3 |
| 20260510120357 | 7 | 304 | 1.6 | 6.4 | 0.00 | 0.94 | 0.00 | 79 | 1014.2 |
| 20260510115857 | 6 | 319 | 1.6 | 4.8 | 0.00 | 0.94 | 0.00 | 80 | 1014.1 |
| 20260510115358 | 6 | 293 | 1.6 | 4.8 | 0.00 | 0.94 | 0.00 | 83 | 1014.2 |
| 20260510114857 | 6 | 277 | 1.6 | 4.8 | 0.00 | 0.94 | 0.00 | 83 | 1014.2 |
| 20260510114359 | 6 | 338 | 0.0 | 4.8 | 0.00 | 0.94 | 0.00 | 81 | 1014.1 |
| 20260510113859 | 5 | 26 | 0.0 | 3.2 | 0.00 | 0.94 | 0.00 | 83 | 1014.1 |
| 20260510113358 | 5 | 0 | 0.0 | 3.2 | 0.00 | 0.94 | 0.00 | 84 | 1014.1 |
| 20260510113146 | 4 | 287 | 0.0 | 3.2 | 0.00 | 0.94 | 0.00 | 86 | 1014.1 |
| 20260510112358 | 3 | 0 | 0.0 | 3.2 | 0.00 | 0.94 | 0.00 | 91 | 1014.0 |
| 20260510111857 | 2 | 0 | 0.0 | 0.0 | 0.00 | 0.94 | 0.00 | 95 | 1014.0 |
| 20260510111358 | 2 | 0 | 0.0 | 0.0 | 0.00 | 0.94 | 0.00 | 95 | 1014.1 |
| 20260510110859 | 1 | 0 | 0.0 | 3.2 | 0.00 | 0.94 | 0.00 | 96 | 1014.3 |
| 20260510110358 | 1 | 0 | 0.0 | 3.2 | 0.00 | 0.94 | 0.00 | 96 | 1014.2 |
| 20260510105858 | 1 | 0 | 0.0 | 1.6 | 0.00 | 0.94 | 0.00 | 96 | 1014.4 |
| 20260510105358 | 1 | 0 | 0.0 | 3.2 | 0.00 | 0.94 | 0.00 | 96 | 1014.5 |
| 20260510104859 | 1 | 0 | 0.0 | 3.2 | 0.00 | 0.94 | 0.00 | 96 | 1014.5 |
| 20260510104647 | 1 | 0 | 0.0 | 3.2 | 0.00 | 0.94 | 0.00 | 96 | 1014.3 |
| 20260510103855 | 0 | 0 | 0.0 | 1.6 | 0.00 | 0.94 | 0.00 | 96 | 1014.3 |
| 20260510103354 | 0 | 0 | 0.0 | 1.6 | 0.00 | 0.94 | 0.00 | 96 | 1014.3 |
| 20260510102854 | 0 | 192 | 0.0 | 1.6 | 0.00 | 0.94 | 0.00 | 95 | 1014.3 |
| 20260510102355 | 0 | 0 | 0.0 | 1.6 | 0.00 | 0.94 | 0.00 | 95 | 1014.3 |
| 20260510101855 | 0 | 0 | 0.0 | 1.6 | 0.00 | 0.94 | 0.00 | 94 | 1014.3 |
| 20260510101356 | 0 | 0 | 0.0 | 0.0 | 0.00 | 0.94 | 0.00 | 94 | 1014.2 |
| 20260510101142 | 1 | 0 | 0.0 | 0.0 | 0.00 | 0.94 | 0.00 | 94 | 1014.1 |
| 20260510100356 | 1 | 0 | 0.0 | 1.6 | 0.00 | 0.94 | 0.00 | 94 | 1014.0 |
| 20260510095856 | 1 | 0 | 0.0 | 1.6 | 0.00 | 0.94 | 0.00 | 94 | 1013.9 |
| 20260510095356 | 1 | 0 | 0.0 | 1.6 | 0.00 | 0.94 | 0.00 | 93 | 1013.7 |
| 20260510094856 | 1 | 0 | 0.0 | 0.0 | 0.00 | 0.94 | 0.00 | 93 | 1013.7 |
| 20260510094356 | 1 | 0 | 0.0 | 1.6 | 0.00 | 0.94 | 0.00 | 92 | 1013.7 |
| 20260510093857 | 1 | 0 | 0.0 | 1.6 | 0.00 | 0.94 | 0.00 | 92 | 1013.6 |
| 20260510093353 | 1 | 0 | 0.0 | 0.0 | 0.00 | 0.94 | 0.00 | 91 | 1013.5 |
| 20260510092852 | 1 | 0 | 0.0 | 0.0 | 0.00 | 0.94 | 0.00 | 90 | 1013.3 |
| 20260510092357 | 2 | 0 | 0.0 | 0.0 | 0.00 | 0.94 | 0.00 | 90 | 1013.2 |
| 20260510091854 | 2 | 0 | 0.0 | 0.0 | 0.00 | 0.94 | 0.00 | 89 | 1013.2 |
| 20260510091352 | 2 | 0 | 0.0 | 1.6 | 0.00 | 0.94 | 0.00 | 89 | 1013.0 |
| 20260510090852 | 2 | 0 | 0.0 | 1.6 | 0.00 | 0.94 | 0.00 | 89 | 1012.9 |
| 20260510090352 | 2 | 0 | 0.0 | 1.6 | 0.00 | 0.94 | 0.00 | 89 | 1012.7 |
| 20260510085853 | 2 | 0 | 0.0 | 1.6 | 0.00 | 0.94 | 0.00 | 88 | 1012.7 |
| 20260510085354 | 2 | 0 | 0.0 | 1.6 | 0.00 | 0.94 | 0.00 | 88 | 1012.5 |
| 20260510084853 | 2 | 288 | 0.0 | 1.6 | 0.00 | 0.94 | 0.00 | 89 | 1012.4 |
| 20260510084353 | 2 | 0 | 0.0 | 1.6 | 0.00 | 0.94 | 0.00 | 89 | 1012.3 |
| 20260510083854 | 2 | 0 | 0.0 | 1.6 | 0.00 | 0.94 | 0.00 | 89 | 1012.2 |
| 20260510083351 | 2 | 0 | 0.0 | 1.6 | 0.00 | 0.94 | 0.00 | 88 | 1012.2 |
| 20260510082929 | 3 | 0 | 0.0 | 3.2 | 0.00 | 0.94 | 0.00 | 87 | 1011.9 |
| 20260510082918 | 2 | 0 | 0.0 | 3.2 | 0.00 | 0.94 | 0.00 | 87 | 1012.2 |
| 20260510081851 | 3 | 0 | 0.0 | 3.2 | 0.00 | 0.94 | 0.00 | 87 | 1011.7 |
| 20260510081635 | 3 | 0 | 0.0 | 3.2 | 0.00 | 0.94 | 0.00 | 86 | 1011.7 |
| 20260510080852 | 3 | 272 | 0.0 | 3.2 | 0.00 | 0.94 | 0.00 | 86 | 1011.6 |
| 20260510080352 | 3 | 0 | 0.0 | 1.6 | 0.00 | 0.94 | 0.00 | 86 | 1011.6 |
| 20260510075852 | 3 | 0 | 0.0 | 0.0 | 0.00 | 0.94 | 0.00 | 85 | 1011.6 |
| 20260510075637 | 3 | 0 | 0.0 | 1.6 | 0.00 | 0.94 | 0.00 | 85 | 1011.6 |
| 20260510074852 | 3 | 0 | 0.0 | 3.2 | 0.00 | 0.94 | 0.00 | 84 | 1011.5 |
| 20260510074352 | 3 | 0 | 0.0 | 3.2 | 0.00 | 0.94 | 0.00 | 84 | 1011.5 |
| 20260510073849 | 3 | 289 | 0.0 | 3.2 | 0.00 | 0.94 | 0.00 | 84 | 1011.5 |
| 20260510073350 | 3 | 0 | 0.0 | 1.6 | 0.00 | 0.94 | 0.00 | 84 | 1011.4 |
| 20260510072849 | 4 | 0 | 0.0 | 1.6 | 0.00 | 0.94 | 0.00 | 83 | 1011.4 |
| 20260510072635 | 4 | 0 | 0.0 | 1.6 | 0.00 | 0.94 | 0.00 | 82 | 1011.3 |
| 20260510071850 | 4 | 296 | 0.0 | 1.6 | 0.00 | 0.94 | 0.00 | 81 | 1011.3 |
| 20260510071633 | 4 | 0 | 0.0 | 1.6 | 0.00 | 0.94 | 0.00 | 81 | 1011.2 |
| 20260510070850 | 5 | 0 | 0.0 | 1.6 | 0.00 | 0.94 | 0.00 | 80 | 1011.2 |
| 20260510070351 | 5 | 0 | 0.0 | 3.2 | 0.00 | 0.94 | 0.00 | 79 | 1011.1 |
| 20260510065850 | 5 | 0 | 0.0 | 3.2 | 0.00 | 0.94 | 0.00 | 79 | 1011.0 |
| 20260510065347 | 5 | 311 | 0.0 | 3.2 | 0.00 | 0.94 | 0.00 | 79 | 1011.0 |
| 20260510064846 | 5 | 0 | 0.0 | 3.2 | 0.00 | 0.94 | 0.00 | 79 | 1011.0 |
| 20260510064346 | 5 | 22 | 0.0 | 3.2 | 0.00 | 0.94 | 0.00 | 79 | 1011.0 |
| 20260510064129 | 5 | 0 | 0.0 | 3.2 | 0.00 | 0.94 | 0.00 | 79 | 1010.9 |
| 20260510063344 | 5 | 0 | 0.0 | 3.2 | 0.00 | 0.94 | 0.00 | 80 | 1010.8 |
| 20260510062841 | 5 | 5 | 1.6 | 3.2 | 0.00 | 0.94 | 0.00 | 80 | 1010.7 |
| 20260510062626 | 5 | 0 | 0.0 | 3.2 | 0.00 | 0.94 | 0.00 | 80 | 1010.7 |
| 20260510062125 | 5 | 304 | 1.6 | 4.8 | 0.00 | 0.94 | 0.00 | 80 | 1010.8 |
| 20260510061340 | 6 | 33 | 1.6 | 4.8 | 0.00 | 0.94 | 0.00 | 80 | 1010.7 |
| 20260510060840 | 6 | 0 | 0.0 | 3.2 | 0.00 | 0.94 | 0.00 | 79 | 1010.8 |
| 20260510060624 | 6 | 0 | 1.6 | 6.4 | 0.00 | 0.94 | 0.00 | 79 | 1010.7 |
| 20260510055840 | 6 | 265 | 1.6 | 6.4 | 0.00 | 0.94 | 0.00 | 78 | 1010.6 |
| 20260510055622 | 6 | 0 | 1.6 | 4.8 | 0.00 | 0.94 | 0.00 | 78 | 1010.6 |
| 20260510054835 | 6 | 272 | 1.6 | 4.8 | 0.00 | 0.94 | 0.00 | 78 | 1010.6 |
| 20260510054335 | 6 | 274 | 1.6 | 4.8 | 0.00 | 0.94 | 0.00 | 77 | 1010.4 |
| 20260510053836 | 6 | 323 | 1.6 | 4.8 | 0.00 | 0.94 | 0.00 | 77 | 1010.3 |
| 20260510053415 | 6 | 0 | 1.6 | 6.4 | 0.00 | 0.94 | 0.00 | 76 | 1010.4 |
| 20260510053402 | 6 | 284 | 1.6 | 4.8 | 0.00 | 0.94 | 0.00 | 77 | 1010.4 |
| 20260510052336 | 7 | 284 | 1.6 | 8.0 | 0.00 | 0.94 | 0.00 | 76 | 1010.4 |
| 20260510051835 | 7 | 0 | 1.6 | 9.7 | 0.00 | 0.94 | 0.00 | 75 | 1010.2 |
| 20260510051336 | 7 | 278 | 1.6 | 9.7 | 0.00 | 0.94 | 0.00 | 74 | 1010.1 |
| 20260510050837 | 7 | 313 | 1.6 | 6.4 | 0.00 | 0.94 | 0.00 | 74 | 1010.0 |
| 20260510050336 | 7 | 240 | 1.6 | 6.4 | 0.00 | 0.94 | 0.00 | 73 | 1009.8 |
| 20260510045836 | 7 | 0 | 1.6 | 6.4 | 0.00 | 0.94 | 0.00 | 73 | 1009.5 |
| 20260510045337 | 8 | 208 | 1.6 | 6.4 | 0.00 | 0.94 | 0.00 | 73 | 1009.5 |
| 20260510044834 | 8 | 0 | 1.6 | 6.4 | 0.00 | 0.94 | 0.00 | 75 | 1009.5 |
| 20260510044334 | 8 | 0 | 1.6 | 6.4 | 0.00 | 0.94 | 0.00 | 77 | 1009.4 |
| 20260510043834 | 8 | 0 | 1.6 | 4.8 | 0.00 | 0.94 | 0.00 | 78 | 1009.3 |
| 20260510043333 | 8 | 0 | 1.6 | 4.8 | 0.00 | 0.94 | 0.00 | 77 | 1009.1 |
| 20260510043116 | 8 | 263 | 1.6 | 4.8 | 0.00 | 0.94 | 0.00 | 76 | 1009.0 |
| 20260510042332 | 8 | 302 | 0.0 | 3.2 | 0.00 | 0.94 | 0.00 | 76 | 1008.8 |
| 20260510041832 | 8 | 0 | 0.0 | 3.2 | 0.00 | 0.94 | 0.00 | 76 | 1008.8 |
| 20260510041331 | 8 | 0 | 0.0 | 4.8 | 0.00 | 0.94 | 0.00 | 76 | 1008.9 |
| 20260510040832 | 8 | 0 | 0.0 | 4.8 | 0.00 | 0.94 | 0.00 | 76 | 1008.8 |
| 20260510040615 | 8 | 0 | 0.0 | 4.8 | 0.00 | 0.94 | 0.00 | 76 | 1008.6 |
| 20260510035832 | 8 | 0 | 0.0 | 0.0 | 0.00 | 0.94 | 0.94 | 76 | 1008.5 |
| 20260510035332 | 8 | 0 | 0.0 | 3.2 | 0.00 | 0.94 | 0.94 | 75 | 1008.4 |
| 20260510034832 | 8 | 0 | 0.0 | 3.2 | 0.00 | 0.94 | 0.94 | 76 | 1008.4 |
| 20260510034333 | 8 | 0 | 0.0 | 0.0 | 0.00 | 0.94 | 0.94 | 75 | 1008.4 |
| 20260510033832 | 8 | 0 | 0.0 | 1.6 | 0.00 | 0.94 | 0.94 | 75 | 1008.3 |
| 20260510033330 | 9 | 0 | 0.0 | 3.2 | 0.00 | 0.94 | 0.94 | 74 | 1008.3 |
| 20260510032830 | 9 | 0 | 0.0 | 3.2 | 0.00 | 0.94 | 0.94 | 74 | 1008.2 |
| 20260510032618 | 9 | 0 | 0.0 | 3.2 | 0.00 | 0.94 | 0.94 | 74 | 1008.1 |
| 20260510032116 | 9 | 0 | 0.0 | 3.2 | 0.00 | 0.94 | 0.94 | 73 | 1007.8 |
| 20260510031331 | 9 | 0 | 0.0 | 3.2 | 0.00 | 0.94 | 0.94 | 73 | 1007.8 |
| 20260510030830 | 9 | 300 | 0.0 | 3.2 | 0.00 | 0.94 | 0.94 | 73 | 1007.8 |
| 20260510030331 | 9 | 0 | 0.0 | 4.8 | 0.00 | 0.94 | 0.94 | 73 | 1007.7 |
| 20260510025831 | 9 | 0 | 1.6 | 4.8 | 0.00 | 0.94 | 0.94 | 72 | 1007.7 |
| 20260510025331 | 9 | 0 | 0.0 | 4.8 | 0.00 | 0.94 | 0.94 | 71 | 1007.4 |
| 20260510025119 | 9 | 267 | 0.0 | 4.8 | 0.00 | 0.94 | 0.94 | 71 | 1007.5 |
| 20260510024331 | 10 | 0 | 1.6 | 4.8 | 0.00 | 0.94 | 0.94 | 70 | 1007.5 |
| 20260510023831 | 10 | 7 | 1.6 | 4.8 | 0.00 | 0.94 | 0.94 | 70 | 1007.5 |
| 20260510023331 | 10 | 191 | 0.0 | 4.8 | 0.00 | 0.94 | 0.94 | 70 | 1007.3 |
| 20260510022830 | 10 | 288 | 1.6 | 6.4 | 0.00 | 0.94 | 0.94 | 69 | 1007.3 |
| 20260510022617 | 10 | 0 | 1.6 | 6.4 | 0.00 | 0.94 | 0.94 | 69 | 1007.2 |
| 20260510022117 | 10 | 261 | 1.6 | 6.4 | 0.00 | 0.94 | 0.94 | 69 | 1007.3 |
| 20260510021330 | 10 | 271 | 1.6 | 6.4 | 0.00 | 0.94 | 0.94 | 68 | 1007.0 |
| 20260510021119 | 10 | 152 | 1.6 | 4.8 | 0.00 | 0.94 | 0.94 | 67 | 1006.8 |
| 20260510020330 | 11 | 150 | 1.6 | 4.8 | 0.00 | 0.94 | 0.94 | 67 | 1006.9 |
| 20260510015830 | 11 | 281 | 1.6 | 6.4 | 0.00 | 0.94 | 0.94 | 66 | 1006.7 |
| 20260510015330 | 11 | 141 | 3.2 | 6.4 | 0.00 | 0.94 | 0.94 | 67 | 1006.5 |
| 20260510014830 | 11 | 11 | 1.6 | 9.7 | 0.00 | 0.94 | 0.94 | 67 | 1006.3 |
| 20260510014330 | 11 | 278 | 1.6 | 9.7 | 0.00 | 0.94 | 0.94 | 66 | 1005.9 |
| 20260510013830 | 12 | 344 | 1.6 | 8.0 | 0.00 | 0.94 | 0.94 | 66 | 1005.7 |
| 20260510013329 | 12 | 281 | 1.6 | 11.3 | 0.00 | 0.94 | 0.94 | 66 | 1005.7 |
| 20260510012830 | 12 | 303 | 1.6 | 11.3 | 0.00 | 0.94 | 0.94 | 66 | 1005.7 |
| 20260510012330 | 12 | 273 | 1.6 | 8.0 | 0.00 | 0.94 | 0.94 | 66 | 1005.8 |
| 20260510011830 | 13 | 0 | 1.6 | 8.0 | 0.00 | 0.94 | 0.94 | 66 | 1005.8 |
| 20260510011330 | 13 | 196 | 3.2 | 11.3 | 0.00 | 0.94 | 0.94 | 64 | 1005.1 |
| 20260510010830 | 13 | 178 | 3.2 | 11.3 | 0.00 | 0.94 | 0.94 | 64 | 1005.2 |
| 20260510010330 | 14 | 23 | 1.6 | 6.4 | 0.00 | 0.94 | 0.94 | 64 | 1004.7 |
| 20260510005831 | 14 | 244 | 1.6 | 6.4 | 0.00 | 0.94 | 0.94 | 63 | 1004.7 |
| 20260510005330 | 15 | 41 | 1.6 | 4.8 | 0.00 | 0.94 | 0.94 | 61 | 1004.4 |
| 20260510004829 | 15 | 0 | 1.6 | 9.7 | 0.00 | 0.94 | 0.94 | 58 | 1004.2 |
| 20260510004330 | 15 | 296 | 3.2 | 9.7 | 0.00 | 0.94 | 0.94 | 56 | 1004.1 |
| 20260510004116 | 15 | 286 | 3.2 | 8.0 | 0.00 | 0.94 | 0.94 | 56 | 1004.0 |
| 20260510003330 | 15 | 271 | 3.2 | 8.0 | 0.00 | 0.94 | 0.94 | 57 | 1004.1 |
| 20260510002830 | 15 | 52 | 4.8 | 9.7 | 0.00 | 0.94 | 0.94 | 57 | 1004.1 |
| 20260510002331 | 16 | 295 | 4.8 | 11.3 | 0.00 | 0.94 | 0.94 | 56 | 1004.0 |
| 20260510001831 | 16 | 301 | 6.4 | 16.1 | 0.00 | 0.94 | 0.94 | 56 | 1003.8 |
| 20260510001330 | 16 | 298 | 6.4 | 16.1 | 0.00 | 0.94 | 0.94 | 56 | 1003.7 |
| 20260510000831 | 16 | 312 | 4.8 | 9.7 | 0.00 | 0.94 | 0.94 | 57 | 1003.5 |
| 20260510000619 | 16 | 302 | 4.8 | 9.7 | 0.00 | 0.94 | 0.94 | 58 | 1003.3 |
| 20260509235831 | 16 | 296 | 3.2 | 9.7 | 0.00 | 0.94 | 0.94 | 59 | 1003.1 |
| 20260509235326 | 16 | 15 | 3.2 | 9.7 | 0.00 | 0.94 | 0.94 | 60 | 1003.3 |
| 20260509234826 | 16 | 335 | 3.2 | 6.4 | 0.00 | 0.94 | 0.94 | 60 | 1003.1 |
| 20260509234326 | 16 | 302 | 3.2 | 6.4 | 0.00 | 0.94 | 0.94 | 60 | 1003.0 |
| 20260509233826 | 16 | 282 | 3.2 | 6.4 | 0.00 | 0.94 | 0.94 | 59 | 1002.9 |
| 20260509233613 | 16 | 295 | 3.2 | 6.4 | 0.00 | 0.94 | 0.94 | 60 | 1002.8 |
| 20260509233118 | 17 | 282 | 3.2 | 6.4 | 0.00 | 0.94 | 0.94 | 59 | 1002.7 |
| 20260509232324 | 17 | 197 | 3.2 | 9.7 | 0.00 | 0.94 | 0.94 | 58 | 1002.6 |
| 20260509231824 | 17 | 297 | 4.8 | 11.3 | 0.00 | 0.94 | 0.94 | 56 | 1002.4 |
| 20260509231323 | 17 | 280 | 4.8 | 12.9 | 0.00 | 0.94 | 0.94 | 57 | 1002.3 |
| 20260509230824 | 17 | 281 | 6.4 | 14.5 | 0.00 | 0.94 | 0.94 | 56 | 1002.2 |
| 20260509230614 | 17 | 303 | 6.4 | 14.5 | 0.00 | 0.94 | 0.94 | 54 | 1002.2 |
| 20260509225824 | 17 | 285 | 8.0 | 14.5 | 0.00 | 0.94 | 0.94 | 55 | 1002.3 |
| 20260509225323 | 17 | 306 | 8.0 | 14.5 | 0.00 | 0.94 | 0.94 | 54 | 1001.9 |
| 20260509224821 | 17 | 293 | 8.0 | 14.5 | 0.00 | 0.94 | 0.94 | 54 | 1002.0 |
| 20260509224321 | 17 | 298 | 6.4 | 14.5 | 0.00 | 0.94 | 0.94 | 57 | 1001.9 |
| 20260509223821 | 17 | 135 | 4.8 | 14.5 | 0.00 | 0.94 | 0.94 | 59 | 1001.7 |
| 20260509223321 | 17 | 309 | 3.2 | 8.0 | 0.00 | 0.94 | 0.94 | 72 | 1001.8 |
| 20260509222820 | 17 | 0 | 3.2 | 9.7 | 0.00 | 0.94 | 0.94 | 76 | 1001.8 |
| 20260509222320 | 16 | 0 | 3.2 | 11.3 | 0.00 | 0.94 | 0.94 | 75 | 1001.6 |
| 20260509221820 | 17 | 258 | 3.2 | 11.3 | 0.00 | 0.94 | 0.94 | 75 | 1001.6 |
| 20260509221321 | 17 | 217 | 3.2 | 9.7 | 0.00 | 0.94 | 0.94 | 74 | 1001.4 |
| 20260509220820 | 16 | 222 | 3.2 | 9.7 | 0.00 | 0.94 | 0.94 | 75 | 1001.3 |
| 20260509220321 | 16 | 240 | 3.2 | 9.7 | 0.00 | 0.94 | 0.94 | 75 | 1001.3 |
| 20260509215821 | 17 | 216 | 3.2 | 11.3 | 0.00 | 0.94 | 0.94 | 74 | 1001.3 |
| 20260509215321 | 17 | 236 | 3.2 | 11.3 | 0.00 | 0.94 | 0.94 | 75 | 1001.1 |
| 20260509214824 | 17 | 217 | 3.2 | 9.7 | 0.00 | 0.94 | 0.94 | 74 | 1000.8 |
| 20260509214609 | 16 | 288 | 3.2 | 9.7 | 0.00 | 0.94 | 0.94 | 72 | 1000.9 |
| 20260509213824 | 16 | 0 | 1.6 | 9.7 | 0.00 | 0.94 | 0.94 | 73 | 1001.1 |
| 20260509213321 | 16 | 0 | 3.2 | 9.7 | 0.00 | 0.94 | 0.94 | 73 | 1000.9 |
| 20260509212820 | 16 | 223 | 3.2 | 9.7 | 0.00 | 0.94 | 0.94 | 74 | 1001.0 |
| 20260509212322 | 16 | 205 | 3.2 | 9.7 | 0.00 | 0.94 | 0.94 | 75 | 1001.1 |
| 20260509212103 | 16 | 200 | 3.2 | 9.7 | 0.00 | 0.94 | 0.94 | 77 | 1001.0 |
| 20260509211320 | 15 | 158 | 3.2 | 9.7 | 0.00 | 0.94 | 0.94 | 78 | 1001.2 |
| 20260509210820 | 15 | 0 | 3.2 | 9.7 | 0.00 | 0.94 | 0.94 | 80 | 1001.3 |
| 20260509210320 | 15 | 118 | 3.2 | 9.7 | 0.08 | 0.94 | 0.94 | 80 | 1001.5 |
| 20260509205820 | 15 | 217 | 3.2 | 9.7 | 0.10 | 0.94 | 0.94 | 82 | 1001.5 |
| 20260509205321 | 15 | 292 | 1.6 | 8.0 | 0.13 | 0.94 | 0.94 | 84 | 1001.5 |
| 20260509205106 | 14 | 184 | 1.6 | 8.0 | 0.20 | 0.94 | 0.94 | 85 | 1001.5 |
| 20260509204321 | 13 | 336 | 1.6 | 9.7 | 0.69 | 0.94 | 0.94 | 88 | 1001.7 |
| 20260509203818 | 13 | 158 | 3.2 | 12.9 | 0.76 | 0.94 | 0.94 | 89 | 1001.8 |
| 20260509203318 | 12 | 287 | 3.2 | 12.9 | 0.76 | 0.94 | 0.94 | 89 | 1001.8 |
| 20260509203059 | 12 | 232 | 6.4 | 17.7 | 0.89 | 0.94 | 0.94 | 91 | 1001.6 |
| 20260509202317 | 11 | 271 | 6.4 | 17.7 | 0.91 | 0.94 | 0.94 | 89 | 1001.9 |
| 20260509201816 | 11 | 218 | 6.4 | 14.5 | 0.91 | 0.94 | 0.94 | 92 | 1001.9 |
| 20260509201316 | 10 | 219 | 6.4 | 14.5 | 0.91 | 0.94 | 0.94 | 92 | 1002.0 |
| 20260509200816 | 10 | 182 | 3.2 | 14.5 | 0.91 | 0.94 | 0.91 | 90 | 1002.8 |
| 20260509200316 | 10 | 145 | 1.6 | 8.0 | 0.84 | 0.86 | 0.84 | 91 | 1003.3 |
| 20260509195815 | 10 | 87 | 1.6 | 6.4 | 0.81 | 0.84 | 0.84 | 91 | 1002.9 |
| 20260509195634 | 12 | 336 | 8.0 | 16.1 | 0.71 | 0.74 | 0.71 | 87 | 1003.6 |
| 20260509195340 | 11 | 0 | 3.2 | 16.1 | 0.79 | 0.81 | 0.79 | 90 | 1003.1 |
| 20260509194314 | 15 | 309 | 6.4 | 16.1 | 0.23 | 0.25 | 0.20 | 77 | 1003.7 |
| 20260509193814 | 15 | 253 | 4.8 | 11.3 | 0.15 | 0.18 | 0.18 | 79 | 1002.3 |
| 20260509193314 | 16 | 98 | 6.4 | 16.1 | 0.15 | 0.18 | 0.18 | 77 | 1002.0 |
| 20260509192814 | 17 | 328 | 8.0 | 17.7 | 0.03 | 0.05 | 0.05 | 70 | 1001.9 |
| 20260509192314 | 17 | 216 | 8.0 | 22.5 | 0.00 | 0.03 | 0.03 | 66 | 1000.9 |
| 20260509192057 | 17 | 210 | 8.0 | 22.5 | 0.00 | 0.03 | 0.03 | 66 | 1001.0 |
| 20260509191314 | 17 | 178 | 9.7 | 20.9 | 0.00 | 0.03 | 0.03 | 66 | 1001.0 |
| 20260509190814 | 17 | 286 | 9.7 | 20.9 | 0.00 | 0.03 | 0.03 | 65 | 1001.0 |
| 20260509190314 | 17 | 186 | 8.0 | 20.9 | 0.00 | 0.03 | 0.03 | 68 | 1001.0 |
| 20260509185814 | 17 | 230 | 8.0 | 16.1 | 0.00 | 0.03 | 0.03 | 70 | 1001.1 |
| 20260509185314 | 17 | 348 | 8.0 | 16.1 | 0.00 | 0.03 | 0.03 | 71 | 1001.3 |
| 20260509185054 | 17 | 219 | 8.0 | 14.5 | 0.00 | 0.03 | 0.03 | 70 | 1001.3 |
| 20260509184633 | 17 | 226 | 9.7 | 22.5 | 0.00 | 0.03 | 0.03 | 69 | 1001.3 |
| 20260509184626 | 17 | 249 | 8.0 | 17.7 | 0.00 | 0.03 | 0.03 | 69 | 1001.3 |
| 20260509183309 | 18 | 248 | 9.7 | 22.5 | 0.00 | 0.03 | 0.03 | 68 | 1001.4 |
| 20260509182809 | 18 | 184 | 8.0 | 17.7 | 0.00 | 0.03 | 0.03 | 67 | 1001.2 |
| 20260509182309 | 18 | 241 | 8.0 | 19.3 | 0.03 | 0.03 | 0.03 | 67 | 1000.8 |
| 20260509181810 | 18 | 228 | 8.0 | 20.9 | 0.03 | 0.03 | 0.03 | 67 | 1000.6 |
| 20260509181309 | 18 | 169 | 8.0 | 20.9 | 0.03 | 0.03 | 0.03 | 66 | 1000.7 |
| 20260509180808 | 18 | 220 | 8.0 | 20.9 | 0.03 | 0.03 | 0.03 | 65 | 1000.2 |
| 20260509180309 | 18 | 209 | 8.0 | 20.9 | 0.03 | 0.03 | 0.03 | 63 | 1000.7 |
| 20260509175808 | 18 | 152 | 8.0 | 19.3 | 0.03 | 0.03 | 0.03 | 60 | 1000.3 |
| 20260509175552 | 17 | 227 | 8.0 | 19.3 | 0.03 | 0.03 | 0.03 | 62 | 1000.8 |
| 20260509174808 | 17 | 211 | 8.0 | 19.3 | 0.03 | 0.03 | 0.03 | 63 | 1001.0 |
| 20260509174308 | 17 | 247 | 8.0 | 19.3 | 0.03 | 0.03 | 0.03 | 66 | 1001.7 |
| 20260509173809 | 17 | 227 | 4.8 | 19.3 | 0.03 | 0.03 | 0.00 | 65 | 1001.9 |
| 20260509173310 | 17 | 225 | 3.2 | 12.9 | 0.00 | 0.00 | 0.00 | 64 | 1002.1 |
| 20260509172809 | 17 | 238 | 6.4 | 19.3 | 0.00 | 0.00 | 0.00 | 68 | 1002.6 |
| 20260509172552 | 17 | 176 | 9.7 | 19.3 | 0.00 | 0.00 | 0.00 | 64 | 1002.9 |
| 20260509171809 | 18 | 191 | 9.7 | 19.3 | 0.00 | 0.00 | 0.00 | 64 | 1002.5 |
| 20260509171552 | 18 | 226 | 8.0 | 17.7 | 0.00 | 0.00 | 0.00 | 61 | 1002.0 |
| 20260509170808 | 19 | 252 | 8.0 | 17.7 | 0.00 | 0.00 | 0.00 | 61 | 1001.3 |
| 20260509170309 | 19 | 220 | 6.4 | 17.7 | 0.00 | 0.00 | 0.00 | 63 | 1000.8 |
| 20260509170053 | 18 | 246 | 8.0 | 17.7 | 0.00 | 0.00 | 0.00 | 64 | 1000.8 |
| 20260509165309 | 18 | 247 | 8.0 | 22.5 | 0.00 | 0.00 | 0.00 | 64 | 1001.8 |
| 20260509164810 | 19 | 194 | 8.0 | 22.5 | 0.00 | 0.00 | 0.00 | 61 | 1001.0 |
| 20260509164310 | 18 | 182 | 8.0 | 17.7 | 0.00 | 0.00 | 0.00 | 65 | 1001.0 |
| 20260509163808 | 18 | 125 | 8.0 | 16.1 | 0.00 | 0.00 | 0.00 | 66 | 1001.7 |
| 20260509163308 | 18 | 280 | 6.4 | 14.5 | 0.00 | 0.00 | 0.00 | 66 | 1001.6 |
| 20260509162807 | 18 | 256 | 8.0 | 14.5 | 0.00 | 0.00 | 0.00 | 66 | 1002.2 |
| 20260509162308 | 18 | 197 | 8.0 | 19.3 | 0.00 | 0.00 | 0.00 | 65 | 1001.9 |
| 20260509161807 | 18 | 226 | 6.4 | 19.3 | 0.00 | 0.00 | 0.00 | 65 | 1001.3 |
| 20260509161308 | 17 | 227 | 6.4 | 14.5 | 0.00 | 0.00 | 0.00 | 68 | 1001.4 |
| 20260509160807 | 17 | 199 | 6.4 | 14.5 | 0.00 | 0.00 | 0.00 | 69 | 1002.4 |
| 20260509160307 | 18 | 216 | 6.4 | 14.5 | 0.00 | 0.00 | 0.00 | 68 | 1002.7 |
| 20260509155807 | 18 | 229 | 6.4 | 14.5 | 0.00 | 0.00 | 0.00 | 67 | 1002.0 |
| 20260509155307 | 17 | 233 | 6.4 | 14.5 | 0.00 | 0.00 | 0.00 | 70 | 1002.3 |
| 20260509154808 | 17 | 176 | 4.8 | 12.9 | 0.00 | 0.00 | 0.00 | 70 | 1001.9 |
| 20260509154308 | 16 | 133 | 6.4 | 14.5 | 0.00 | 0.00 | 0.00 | 72 | 1002.1 |
| 20260509153807 | 16 | 236 | 6.4 | 14.5 | 0.00 | 0.00 | 0.00 | 73 | 1002.0 |